STARLINK-36673, 67660

Orbit data source: Space-Track

STARLINK-36673, 67660 is a payload satellite owned by SpaceX/Seattle (US) in SSO that was launched on Mon, 02 Feb 2026 UTC via an FALCON 9 launch vehicle from the Air Force Western Test Range (AFWTR). Payload-class satellites include a variety of spacecraft equipped with specific instruments for various scientific and technological missions. These include communications satellites like Starlink; space stations such as the ISS; scientific satellites like the Hubble; Earth observation satellites from companies like Planet Labs, Umbra, and HawkEye 360; GPS; miniature CubeSats for education and research; and military/defense satellites.

Loading next visibility...
Identifier
67660, 2026-022N
Orbit
SSO
Country
Flag of USUS
Related business
Manufacturer
SpaceX/Seattle
Mission
Operational spacecraft
Bus & Motor
STARLINK V2MO, Unknown motor
Mass
575 kg wet, ~530 kg dry
Launch date (UTC)
2026-02-02 (2 months ago)
Launch vehicle
FALCON 9
Launch site
Air Force Western Test Range (AFWTR)
Object type
Payload
Rocket body
Debris
Shape & HBR
Unknown shape, 17.7 m
Radar Cross Section
RCS unknown

Expand to show TLE details & history
Last TLE update: 6 hours ago

TLE from 6 hours ago
0 STARLINK-36673
1 67660U 26022N   26095.50003471  .00102514  00000-0  30578-2 0  9997
2 67660  97.2846 129.4602 0001521  95.6631 196.7477 15.34235630  6038
Epoch: 2026-04-05T12:00Z
TLE epoch observation values (Epoch: 2026-04-05T12:00:02.998Z)
Latitude
-66.67597°
Longitude
132.79105°
Altitude
489.474 km
Speed
7.618 km/s
True Right ascension
09h 46m 25s
True Declination
-66° 32' 45"
Sunlit
Object was in partial shadow at epoch
Visualization orbit readout
Latitude
Unknown
Longitude
Unknown
Altitude
Unknown
Speed
Unknown
Apparent Right ascension
Unknown
Apparent Declination
Unknown
Sunlit
N/A
Visualization observer readout
Local Sidereal Time
23:39:28
Azimuth
Unknown
Elevation
Unknown
Doppler factor
Unknown
Orbital elements
Apogee altitude
461.174 km
Perigee altitude
459.093 km
Semi-major axis
6,838.271 km
Eccentricity
0.00015
Inclination
97.2846°
RAAN
129.4602°
Arg. of periapsis
95.6631°
True anomaly
196.74268°
Mean anomaly
196.7477°
Eccentric anomaly
196.74519°
Mean motion
3.83817 °/min
Orbital period
93.79 mins
BSTAR
0.0030578
Loading maneuver chart data...
Computing Atmospheric mass density...
Loading historical data...
Loading historical data...
Loading historical data...
Loading historical data...
Loading historical data...
Loading historical data...
Loading historical data...

Documentation

Showing up to 5 results
|